When you browse on this site, cookies collect data to enhance your experience and personalize the content and advertising you see.
Visit our Privacy Policy to learn more. By continuing to use the site, you agree to this use of cookies and data.
  • In Portugal
  • List of Countries
  • For 7 days
  • Water Temperature
  • Weather Map
  • Weather Widgets
  • user-avatar
    Login

    Hourly Weather Veszprem

    Today, 22 September, Sunday

    Time Temperature Precipitation Wind Pressure Humidity
    00:00 +10°C° 0 mm 2 mps 744 mmHg 52%
    01:00 +10°C° 0 mm 2 mps 744 mmHg 53%
    02:00 +9°C° 0 mm 2 mps 744 mmHg 54%
    03:00 +9°C° 0 mm 2 mps 743 mmHg 55%
    04:00 +8°C° 0 mm 2 mps 743 mmHg 55%
    05:00 +9°C° 0 mm 2 mps 743 mmHg 53%
    06:00 +10°C° 0 mm 2 mps 743 mmHg 51%
    07:00 +10°C° 0 mm 3 mps 743 mmHg 48%
    08:00 +13°C° 0 mm 3 mps 743 mmHg 43%
    09:00 +15°C° 0 mm 4 mps 743 mmHg 37%
    10:00 +19°C° 0 mm 5 mps 742 mmHg 31%
    11:00 +20°C° 0 mm 5 mps 742 mmHg 29%
    12:00 +21°C° 0 mm 6 mps 741 mmHg 27%
    13:00 +23°C° 0 mm 6 mps 741 mmHg 26%
    14:00 +23°C° 0 mm 5 mps 740 mmHg 26%
    15:00 +23°C° 0 mm 5 mps 740 mmHg 27%
    16:00 +23°C° 0 mm 5 mps 739 mmHg 28%
    17:00 +21°C° 0 mm 4 mps 739 mmHg 33%
    18:00 +19°C° 0 mm 3 mps 739 mmHg 38%
    19:00 +17°C° 0 mm 2 mps 738 mmHg 43%
    20:00 +17°C° 0 mm 3 mps 738 mmHg 45%
    21:00 +17°C° 0 mm 3 mps 738 mmHg 46%
    22:00 +17°C° 0 mm 3 mps 738 mmHg 48%
    23:00 +17°C° 0 mm 3 mps 738 mmHg 51%

    Tomorrow, 23 September, Monday

    Time Temperature Precipitation Wind Pressure Humidity
    00:00 +17°C° 0 mm 3 mps 738 mmHg 54%
    01:00 +17°C° 0 mm 4 mps 737 mmHg 57%
    02:00 +17°C° 0 mm 3 mps 737 mmHg 58%
    03:00 +17°C° 0 mm 3 mps 737 mmHg 59%
    04:00 +16°C° 0 mm 3 mps 737 mmHg 60%
    05:00 +17°C° 0 mm 3 mps 737 mmHg 57%
    06:00 +17°C° 0 mm 3 mps 737 mmHg 55%
    07:00 +17°C° 0 mm 3 mps 737 mmHg 53%
    08:00 +18°C° 0 mm 3 mps 737 mmHg 52%
    09:00 +20°C° 0 mm 3 mps 738 mmHg 52%
    10:00 +21°C° 0 mm 3 mps 738 mmHg 52%
    11:00 +22°C° 0 mm 3 mps 738 mmHg 50%
    12:00 +22°C° 0 mm 3 mps 738 mmHg 48%
    13:00 +24°C° 0 mm 3 mps 738 mmHg 46%
    14:00 +22°C° 0 mm 4 mps 737 mmHg 48%
    15:00 +22°C° 0 mm 4 mps 737 mmHg 51%
    16:00 +21°C° 0 mm 5 mps 737 mmHg 53%
    17:00 +19°C° 0 mm 4 mps 737 mmHg 62%
    18:00 +17°C° 0 mm 4 mps 738 mmHg 70%
    19:00 +14°C° 0 mm 3 mps 738 mmHg 79%
    20:00 +14°C° 0 mm 3 mps 738 mmHg 81%
    21:00 +14°C° 0 mm 3 mps 738 mmHg 84%
    22:00 +14°C° 0 mm 2 mps 738 mmHg 86%
    23:00 +14°C° 0 mm 2 mps 738 mmHg 86%

    Day after tomorrow, 24 September, Tuesday

    Time Temperature Precipitation Wind Pressure Humidity
    00:00 +14°C° 0 mm 2 mps 738 mmHg 86%
    01:00 +13°C° 0 mm 3 mps 738 mmHg 86%
    02:00 +13°C° 0 mm 3 mps 738 mmHg 86%
    03:00 +13°C° 0 mm 3 mps 738 mmHg 86%
    04:00 +13°C° 0 mm 3 mps 738 mmHg 87%
    05:00 +13°C° 0 mm 4 mps 738 mmHg 86%
    06:00 +13°C° 0 mm 4 mps 738 mmHg 85%
    07:00 +14°C° 0 mm 4 mps 738 mmHg 84%
    08:00 +14°C° 0 mm 4 mps 738 mmHg 80%
    09:00 +15°C° 0 mm 4 mps 738 mmHg 76%
    10:00 +17°C° 0 mm 3 mps 738 mmHg 72%
    11:00 +18°C° 0 mm 3 mps 738 mmHg 67%
    12:00 +19°C° 0 mm 2 mps 738 mmHg 61%
    13:00 +21°C° 0 mm 1 mps 737 mmHg 55%
    14:00 +21°C° 0 mm 1 mps 737 mmHg 52%
    15:00 +22°C° 0 mm 1 mps 737 mmHg 50%
    16:00 +22°C° 0 mm 1 mps 736 mmHg 47%
    17:00 +20°C° 0 mm 1 mps 736 mmHg 52%
    18:00 +19°C° 0 mm 1 mps 736 mmHg 57%
    19:00 +16°C° 0 mm 1 mps 736 mmHg 62%
    20:00 +16°C° 0 mm 1 mps 736 mmHg 65%
    21:00 +15°C° 0 mm 1 mps 736 mmHg 68%
    22:00 +15°C° 0 mm 1 mps 736 mmHg 70%
    23:00 +15°C° 0 mm 1 mps 736 mmHg 75%

    25 September, Wednesday

    Time Temperature Precipitation Wind Pressure Humidity
    00:00 +14°C° 0 mm 1 mps 735 mmHg 79%
    01:00 +14°C° 0 mm 1 mps 735 mmHg 83%
    02:00 +14°C° 0 mm 1 mps 735 mmHg 84%
    03:00 +13°C° 0 mm 1 mps 735 mmHg 85%
    04:00 +13°C° 0 mm 1 mps 735 mmHg 86%
    05:00 +14°C° 0 mm 1 mps 735 mmHg 84%
    06:00 +14°C° 0 mm 1 mps 735 mmHg 82%
    07:00 +15°C° 0 mm 1 mps 735 mmHg 79%
    08:00 +18°C° 0 mm 1 mps 735 mmHg 71%
    09:00 +19°C° 0 mm 2 mps 736 mmHg 64%
    10:00 +21°C° 0 mm 2 mps 736 mmHg 56%
    11:00 +21°C° 0 mm 2 mps 736 mmHg 52%
    12:00 +23°C° 0 mm 2 mps 735 mmHg 49%
    13:00 +24°C° 0 mm 2 mps 735 mmHg 46%
    14:00 +24°C° 0 mm 2 mps 735 mmHg 46%
    15:00 +23°C° 0 mm 2 mps 734 mmHg 47%
    16:00 +23°C° 0 mm 1 mps 734 mmHg 47%
    17:00 +20°C° 0.5 mm 3 mps 734 mmHg 56%
    18:00 +18°C° 0.5 mm 4 mps 735 mmHg 64%
    19:00 +15°C° 0.5 mm 5 mps 735 mmHg 72%
    20:00 +15°C° 1.1 mm 5 mps 735 mmHg 77%
    21:00 +14°C° 1.1 mm 5 mps 736 mmHg 82%
    22:00 +13°C° 1.1 mm 5 mps 736 mmHg 87%
    23:00 +13°C° 1.5 mm 5 mps 736 mmHg 88%

    26 September, Thursday

    Time Temperature Precipitation Wind Pressure Humidity
    00:00 +13°C° 1.5 mm 5 mps 736 mmHg 89%
    01:00 +12°C° 1.5 mm 5 mps 736 mmHg 90%
    02:00 +13°C° 0.3 mm 5 mps 737 mmHg 87%
    03:00 +13°C° 0.3 mm 5 mps 737 mmHg 85%
    04:00 +13°C° 0.3 mm 4 mps 737 mmHg 82%
    05:00 +13°C° 0 mm 4 mps 738 mmHg 81%
    06:00 +13°C° 0 mm 4 mps 738 mmHg 80%
    07:00 +13°C° 0 mm 4 mps 738 mmHg 78%
    08:00 +15°C° 0 mm 5 mps 739 mmHg 72%
    09:00 +16°C° 0 mm 6 mps 739 mmHg 65%
    10:00 +17°C° 0 mm 6 mps 739 mmHg 59%
    11:00 +19°C° 0 mm 6 mps 739 mmHg 54%
    12:00 +20°C° 0 mm 6 mps 739 mmHg 49%
    13:00 +21°C° 0 mm 5 mps 739 mmHg 44%
    14:00 +21°C° 0 mm 5 mps 739 mmHg 45%
    15:00 +21°C° 0 mm 5 mps 739 mmHg 46%
    16:00 +21°C° 0 mm 5 mps 739 mmHg 47%
    17:00 +19°C° 0 mm 4 mps 739 mmHg 52%
    18:00 +18°C° 0 mm 3 mps 739 mmHg 58%
    19:00 +16°C° 0 mm 2 mps 739 mmHg 63%
    20:00 +16°C° 0 mm 2 mps 739 mmHg 65%
    21:00 +15°C° 0 mm 2 mps 739 mmHg 67%
    22:00 +15°C° 0 mm 2 mps 740 mmHg 69%
    23:00 +15°C° 0 mm 2 mps 740 mmHg 72%

    27 September, Friday

    Time Temperature Precipitation Wind Pressure Humidity
    00:00 +14°C° 0 mm 2 mps 740 mmHg 75%
    01:00 +14°C° 0 mm 1 mps 740 mmHg 77%
    02:00 +14°C° 0 mm 2 mps 740 mmHg 78%
    03:00 +14°C° 0 mm 2 mps 740 mmHg 79%
    04:00 +14°C° 0 mm 2 mps 740 mmHg 79%
    05:00 +14°C° 0 mm 2 mps 740 mmHg 78%
    06:00 +15°C° 0 mm 2 mps 740 mmHg 76%
    07:00 +15°C° 0 mm 2 mps 740 mmHg 74%
    08:00 +17°C° 0 mm 3 mps 740 mmHg 65%
    09:00 +19°C° 0 mm 3 mps 740 mmHg 57%
    10:00 +21°C° 0 mm 4 mps 740 mmHg 49%
    11:00 +22°C° 0 mm 4 mps 740 mmHg 46%
    12:00 +23°C° 0 mm 4 mps 740 mmHg 43%
    13:00 +25°C° 0 mm 4 mps 739 mmHg 39%
    14:00 +25°C° 0 mm 3 mps 739 mmHg 41%
    15:00 +24°C° 0 mm 3 mps 739 mmHg 42%
    16:00 +24°C° 0 mm 2 mps 739 mmHg 43%
    17:00 +23°C° 0 mm 2 mps 739 mmHg 47%
    18:00 +20°C° 0 mm 2 mps 739 mmHg 51%
    19:00 +18°C° 0 mm 2 mps 739 mmHg 56%
    20:00 +18°C° 0 mm 2 mps 739 mmHg 59%
    21:00 +17°C° 0 mm 2 mps 739 mmHg 62%
    22:00 +17°C° 0 mm 2 mps 739 mmHg 65%
    23:00 +17°C° 0 mm 2 mps 739 mmHg 65%
    Show more